| time (UTC) | temp C | wind direction | speed KPH | gust KPH | rain 1hr cm | rain 24hr cm | rain mn cm | humidity % | barometer mb |
| 20260502204504 | 11 | 0 | 0.0 | 0.0 | 0.00 | 0.71 | 0.71 | 93 | 1012.4 |
| 20260502201504 | 11 | 0 | 0.0 | 0.0 | 0.00 | 0.71 | 0.71 | 93 | 1012.2 |
| 20260502194504 | 11 | 0 | 0.0 | 0.0 | 0.00 | 0.71 | 0.71 | 93 | 1012.1 |
| 20260502191504 | 11 | 0 | 0.0 | 0.0 | 0.05 | 0.71 | 0.71 | 92 | 1012.4 |
| 20260502190005 | 11 | 0 | 0.0 | 0.0 | 0.05 | 0.71 | 0.71 | 92 | 1012.5 |
| 20260502181505 | 11 | 0 | 0.0 | 0.0 | 0.05 | 0.69 | 0.69 | 92 | 1012.6 |
| 20260502161504 | 11 | 0 | 0.0 | 0.0 | 0.08 | 0.53 | 0.53 | 91 | 1013.5 |
| 20260502151504 | 12 | 0 | 0.0 | 0.0 | 0.18 | 0.46 | 0.46 | 90 | 1014.1 |
| 20260502113004 | 15 | 0 | 0.0 | 0.0 | 0.00 | 0.00 | 0.00 | 71 | 1016.6 |
| 20260502111503 | 15 | 0 | 0.0 | 0.0 | 0.00 | 0.00 | 0.00 | 69 | 1016.8 |
| 20260502110003 | 15 | 0 | 0.0 | 0.0 | 0.00 | 0.00 | 0.00 | 71 | 1016.9 |
| 20260502070005 | 11 | 0 | 0.0 | 0.0 | 0.00 | 0.00 | 0.00 | 90 | 1018.9 |
| 20260502064505 | 11 | 0 | 0.0 | 0.0 | 0.00 | 0.00 | 0.00 | 91 | 1018.9 |
| 20260502054505 | 8 | 0 | 0.0 | 0.0 | 0.00 | 0.18 | 0.00 | 93 | 1019.3 |
| 20260502053005 | 8 | 0 | 0.0 | 0.0 | 0.00 | 0.18 | 0.00 | 93 | 1019.4 |
| 20260502044505 | 7 | 0 | 0.0 | 0.0 | 0.00 | 0.18 | 0.00 | 93 | 1019.4 |
| 20260502043005 | 7 | 0 | 0.0 | 0.0 | 0.00 | 0.18 | 0.00 | 93 | 1019.4 |
| 20260502041505 | 7 | 0 | 0.0 | 0.0 | 0.00 | 0.18 | 0.00 | 93 | 1019.4 |
| 20260502034505 | 7 | 0 | 0.0 | 0.0 | 0.00 | 0.18 | 0.00 | 93 | 1019.4 |
| 20260502033005 | 7 | 0 | 0.0 | 0.0 | 0.00 | 0.18 | 0.00 | 93 | 1019.5 |
| 20260502031505 | 7 | 0 | 0.0 | 0.0 | 0.00 | 0.18 | 0.00 | 92 | 1019.8 |
| 20260502024505 | 7 | 0 | 0.0 | 0.0 | 0.00 | 0.18 | 0.00 | 92 | 1020.0 |
| 20260502023005 | 7 | 0 | 0.0 | 0.0 | 0.00 | 0.18 | 0.00 | 92 | 1020.1 |
| 20260502021505 | 7 | 0 | 0.0 | 0.0 | 0.00 | 0.18 | 0.00 | 92 | 1020.2 |
| 20260502014504 | 7 | 0 | 0.0 | 0.0 | 0.00 | 0.18 | 0.00 | 92 | 1020.5 |
| 20260502011504 | 7 | 0 | 0.0 | 0.0 | 0.00 | 0.18 | 0.00 | 91 | 1020.7 |
| 20260502004504 | 8 | 0 | 0.0 | 0.0 | 0.00 | 0.18 | 0.00 | 91 | 1020.8 |
| 20260502000005 | 8 | 0 | 0.0 | 0.0 | 0.00 | 0.18 | 0.00 | 90 | 1021.0 |
| 20260501234505 | 8 | 0 | 0.0 | 0.0 | 0.00 | 0.18 | 0.00 | 90 | 1021.1 |
| 20260501231505 | 10 | 0 | 0.0 | 0.0 | 0.00 | 0.18 | 0.00 | 90 | 1021.1 |
| 20260501224505 | 11 | 0 | 0.0 | 0.0 | 0.00 | 0.18 | 0.18 | 91 | 1021.2 |
| 20260501223005 | 11 | 0 | 0.0 | 0.0 | 0.00 | 0.18 | 0.18 | 91 | 1021.4 |
| 20260501213004 | 10 | 0 | 0.0 | 0.0 | 0.00 | 0.18 | 0.18 | 89 | 1021.5 |